Simultaneous Nadir Overpasses (SNOs) Predictions

Prediction of SNOs between METOP-A and NOAA-19 Satellite Orbit:

Table of predicted SNOs for the next 14.0 days since TLE Epoch: 6/18/2021
Index Date (METOP-A) Time (METOP-A) Lat,Lon (METOP-A) SZA (METOP-A ) Date (NOAA-19) Time (NOAA-19) Lat,Lon (NOAA-19) SZA (NOAA-19 ) Distance(km) Time Diff (sec)
1 06/25/2021 02:43:34 -80.82, -32.85 122.54 06/25/2021 02:42:30 -80.82, -32.72 122.54 2.21 64
2 06/25/2021 03:34:14 80.83, 134.62 57.48 06/25/2021 03:33:32 80.82, 134.47 57.47 2.87 42
3 06/25/2021 04:24:55 -80.83, -57.99 122.52 06/25/2021 04:24:30 -80.82, -58.10 122.53 2.13 25
4 06/25/2021 05:15:36 80.82, 109.13 57.47 06/25/2021 05:15:32 80.82, 109.09 57.47 0.92 4
5 06/25/2021 06:06:17 -80.82, -83.48 122.53 06/25/2021 06:06:30 -80.82, -83.48 122.52 0.33 13
6 06/25/2021 06:56:57 80.83, 83.99 57.49 06/25/2021 06:57:31 80.83, 84.07 57.49 1.61 34
7 06/25/2021 07:47:38 -80.84,-108.63 122.51 06/25/2021 07:48:29 -80.83,-108.49 122.50 2.62 51



Historial Predications of SNOs between METOP-A and NOAA-19
